Fillmore, Indiana
Current Conditions -  °F | °C
As of 12:35 AM on Monday 20 Oct 2014 (Local Time) from K4I7 Reporting Station
Clear Clear  
Wind Chill: 43°   Ceiling: Unl
Heat Index: 43°   Visibility: 10mi
Dew Point: 41°   Wind: 3mph
Humidity: 93%   Direction: 180°S
Pressure: 30.04"   Gusts: NA
Location:  39.67°N, 86.75°W
Report Text: K4I7 200435Z AUTO 18003KT 10SM CLR 06/05 A3004 RMK AO2
Loading
Personal Weather Stations






























Interactive Weather Map
Tropical Storm Tracking
New forecast layout! Learn more

10-Day Weather Forecast

Advertisements
Track Severe Weather on mobile